Crane, MT

11:48 AM MST on February 09, 2016 (GMT -0700)
Sidney-Richland Municipal

Weather History for KSDY - May, 2013

Change the Weather History Date:

Sunday, May 19, 2013

  Actual Average Record
Temperature  
Mean Temperature 56 °F -  
Max Temperature 60 °F 71 °F 93 °F (1992)
Min Temperature 51 °F 42 °F 24 °F (1997)
Degree Days  
Heating Degree Days 10    
Growing Degree Days 6 (Base 50)    
Moisture  
Dew Point 50 °F    
Average Humidity 81    
Maximum Humidity 88    
Minimum Humidity 67    
Precipitation  
Precipitation 0.55 in - - ()
Sea Level Pressure  
Sea Level Pressure 29.87 in    
Wind  
Wind Speed 15 mph (NNE)    
Max Wind Speed 26 mph    
Max Gust Speed 34 mph    
Visibility 10 miles    
Events      
Averages and records for this station are not official NWS values.
T = Trace of Precipitation, MM = Missing Value Source: NWS Daily Summary

Daily Weather History Graph

Daily Weather History Graph

Search for Another Location

Airport or City:

Trip Planner

Search our weather history database for the weather conditions in past years. The results will help you decide how hot, cold, wet, or windy it might be!

Date:

Astronomy

May. 19, 2013 Rise Set
Actual Time 5:13 AM MDT 8:33 PM MDT
Civil Twilight 4:36 AM MDT 9:10 PM MDT
Nautical Twilight 3:47 AM MDT 10:00 PM MDT
Astronomical Twilight 2:44 AM MDT 11:04 PM MDT
Moon 2:15 PM MDT (5/19) 2:05 AM MDT (5/19)
Length of Visible Light 16h 34m
Length of Day
15h 19m
Waxing Gibbous, 66% of the Moon is Illuminated
May 19
Waxing Gibbous
May 24
Full
May 31
Last Quarter
Jun 8
New
Jun 16
First Quarter

Hourly Weather History & Observations

Time (MDT) Temp. Dew Point Humidity Pressure Visibility Wind Dir Wind Speed Gust Speed Precip Events Conditions
12:15 AM 60.8 °F 53.6 °F 77% 29.87 in 10.0 mi NNE 9.2 mph - N/A   Overcast
12:35 AM 60.8 °F 53.6 °F 77% 29.86 in 10.0 mi NNE 10.4 mph - N/A   Overcast
1:15 AM 59.0 °F 53.6 °F 82% 29.84 in 10.0 mi North 12.7 mph - N/A   Overcast
1:35 AM 59.0 °F 53.6 °F 82% 29.84 in 10.0 mi NNE 12.7 mph - N/A   Overcast
1:55 AM 59.0 °F 53.6 °F 82% 29.85 in 9.0 mi NNE 12.7 mph 17.3 mph N/A   Overcast
2:15 AM 59.0 °F 53.6 °F 82% 29.86 in 10.0 mi NNE 12.7 mph - N/A   Overcast
2:35 AM 59.0 °F 53.6 °F 82% 29.86 in 10.0 mi NNE 11.5 mph - N/A   Mostly Cloudy
2:55 AM 59.0 °F 53.6 °F 82% 29.86 in 10.0 mi NNE 11.5 mph - N/A   Overcast
3:35 AM 57.2 °F 53.6 °F 88% 29.86 in 10.0 mi North 12.7 mph - N/A   Overcast
3:55 AM 57.2 °F 51.8 °F 82% 29.86 in 10.0 mi NNE 12.7 mph - N/A   Overcast
4:15 AM 57.2 °F 51.8 °F 82% 29.87 in 10.0 mi NNE 12.7 mph - N/A   Overcast
4:35 AM 57.2 °F 51.8 °F 82% 29.87 in 10.0 mi NNE 15.0 mph 20.7 mph N/A   Overcast
4:55 AM 57.2 °F 51.8 °F 82% 29.87 in 10.0 mi NNE 15.0 mph - N/A   Overcast
5:15 AM 57.2 °F 51.8 °F 82% 29.88 in 10.0 mi NE 16.1 mph 20.7 mph N/A   Overcast
5:35 AM 55.4 °F 51.8 °F 88% 29.87 in 9.0 mi NNE 12.7 mph - N/A   Overcast
6:15 AM 55.4 °F 51.8 °F 88% 29.88 in 10.0 mi NNE 13.8 mph 19.6 mph N/A   Overcast
6:35 AM 55.4 °F 51.8 °F 88% 29.88 in 9.0 mi NNE 12.7 mph 16.1 mph N/A   Overcast
6:55 AM 55.4 °F 51.8 °F 88% 29.88 in 10.0 mi NNE 12.7 mph - N/A   Overcast
7:15 AM 55.4 °F 51.8 °F 88% 29.88 in 10.0 mi NNE 16.1 mph 20.7 mph N/A   Overcast
7:35 AM 55.4 °F 50.0 °F 82% 29.89 in 10.0 mi NNE 15.0 mph 21.9 mph N/A   Overcast
7:55 AM 55.4 °F 50.0 °F 82% 29.89 in 10.0 mi NNE 13.8 mph - N/A   Overcast
8:15 AM 55.4 °F 51.8 °F 88% 29.89 in 10.0 mi North 12.7 mph - N/A   Overcast
8:55 AM 55.4 °F 50.0 °F 82% 29.89 in 10.0 mi North 17.3 mph 20.7 mph N/A   Overcast
9:15 AM 55.4 °F 50.0 °F 82% 29.89 in 10.0 mi NNE 11.5 mph - N/A   Mostly Cloudy
9:35 AM 55.4 °F 48.2 °F 77% 29.89 in 10.0 mi NNE 15.0 mph - N/A   Overcast
9:55 AM 55.4 °F 48.2 °F 77% 29.88 in 10.0 mi NNE 16.1 mph 19.6 mph N/A   Overcast
10:15 AM 55.4 °F 48.2 °F 77% 29.88 in 10.0 mi North 15.0 mph - N/A   Overcast
10:35 AM 57.2 °F 48.2 °F 72% 29.88 in 10.0 mi North 17.3 mph 20.7 mph N/A   Overcast
11:15 AM 57.2 °F 50.0 °F 77% 29.89 in 10.0 mi NNE 17.3 mph 23.0 mph N/A   Overcast
11:35 AM 57.2 °F 50.0 °F 77% 29.88 in 10.0 mi NNE 16.1 mph 24.2 mph N/A   Overcast
11:55 AM 57.2 °F 48.2 °F 72% 29.88 in 10.0 mi North 15.0 mph 25.3 mph N/A   Overcast
12:15 PM 57.2 °F 48.2 °F 72% 29.87 in 10.0 mi North 13.8 mph 25.3 mph N/A   Overcast
12:35 PM 57.2 °F 48.2 °F 72% 29.87 in 10.0 mi North 17.3 mph - N/A   Overcast
1:35 PM 57.2 °F 48.2 °F 72% 29.86 in 10.0 mi NNE 18.4 mph 23.0 mph N/A   Overcast
2:15 PM 57.2 °F 46.4 °F 67% 29.87 in 10.0 mi North 16.1 mph 24.2 mph N/A   Overcast
2:35 PM 57.2 °F 46.4 °F 67% 29.87 in 10.0 mi North 17.3 mph 24.2 mph N/A   Overcast
2:55 PM 57.2 °F 46.4 °F 67% 29.86 in 10.0 mi North 19.6 mph 25.3 mph N/A   Overcast
3:15 PM 57.2 °F 46.4 °F 67% 29.87 in 10.0 mi NNE 17.3 mph 24.2 mph N/A   Overcast
3:35 PM 55.4 °F 48.2 °F 77% 29.88 in 7.0 mi NNE 15.0 mph - N/A   Overcast
4:15 PM 53.6 °F 50.0 °F 88% 29.89 in 9.0 mi North 16.1 mph 20.7 mph N/A   Overcast
4:35 PM 53.6 °F 50.0 °F 88% 29.89 in 9.0 mi North 13.8 mph 18.4 mph N/A   Overcast
4:55 PM 53.6 °F 50.0 °F 88% 29.89 in 10.0 mi North 18.4 mph 24.2 mph N/A   Overcast
5:15 PM 53.6 °F 48.2 °F 82% 29.88 in 10.0 mi North 21.9 mph 26.5 mph N/A   Overcast
5:35 PM - - N/A% 29.87 in 10.0 mi North 21.9 mph 32.2 mph N/A   Overcast
5:55 PM 51.8 °F 48.2 °F 88% 29.87 in 10.0 mi North 23.0 mph 32.2 mph 0.07 in   Overcast
6:15 PM 51.8 °F 48.2 °F 88% 29.87 in 10.0 mi North 23.0 mph 31.1 mph 0.02 in   Overcast
6:35 PM 51.8 °F 48.2 °F 88% 29.88 in 9.0 mi North 17.3 mph 27.6 mph 0.05 in   Overcast
6:55 PM 53.6 °F 48.2 °F 82% 29.88 in 10.0 mi North 21.9 mph 29.9 mph 0.10 in   Overcast
7:15 PM 51.8 °F 48.2 °F 88% 29.88 in 9.0 mi North 18.4 mph 28.8 mph 0.04 in   Overcast
7:55 PM - - N/A% 29.88 in 10.0 mi North 24.2 mph 29.9 mph 0.08 in   Overcast
8:15 PM 51.8 °F 48.2 °F 88% 29.89 in 9.0 mi North 23.0 mph 27.6 mph 0.01 in   Overcast
8:35 PM - - N/A% 29.89 in 10.0 mi North 21.9 mph 29.9 mph 0.03 in   Overcast
8:55 PM 51.8 °F 48.2 °F 88% 29.90 in 10.0 mi North 20.7 mph - 0.05 in   Overcast
9:15 PM - - N/A% 29.89 in 10.0 mi North 21.9 mph 28.8 mph 0.01 in   Overcast
9:35 PM - - N/A% 29.89 in 10.0 mi North 23.0 mph 29.9 mph 0.02 in   Overcast
10:15 PM - - N/A% 29.88 in 8.0 mi North 23.0 mph 29.9 mph 0.05 in   Overcast
10:35 PM - - N/A% 29.87 in 8.0 mi North 23.0 mph 29.9 mph 0.09 in   Overcast
10:55 PM - - N/A% 29.87 in 10.0 mi North 24.2 mph 32.2 mph 0.13 in   Overcast
11:15 PM - - N/A% 29.86 in 9.0 mi North 26.5 mph 34.5 mph 0.05 in   Overcast
11:35 PM - - N/A% 29.85 in 10.0 mi North 25.3 mph 34.5 mph 0.07 in   Overcast
11:55 PM - - N/A% 29.86 in 9.0 mi North 24.2 mph 34.5 mph 0.10 in   Mostly Cloudy